Location: Valley Falls
(35.0169°N, 81.9753°W)
Time: 20:22:50
(UTC+00:00)

X-37B - Pass Details

Date: 06 December 2022
Orbit: 277 x 277 km, 45.0° (Epoch: 01 November)

Event Time Altitude Azimuth Distance (km) Brightness Sun altitude
Rises 23:27:17 0° 242° (WSW) 1,902 5.9 -14.3°
Reaches altitude 10° 23:29:12 10° 245° (WSW) 1,093 4.3 -14.7°
Maximum altitude 23:31:37 67° 329° (NNW) 303 0.0 -15.2°
Enters shadow 23:32:02 52° 26° (NNE) 350 0.0 -15.2°
